Delta Virtual Airport Information Service

Boston Logan International Airport

ICAO: KBOS Country: United States
Latitude: 42.363 Longitude: -71.0064
Latest Arrival : DALJUMP (LIRF-KBOS) Latest Departure : DAL2488 (1A) (KBOS-KSFO)


WX CaptureLIVE
Data provided by noaa.gov | Fetched at 18:19:17

METAR : KBOS 172154Z 01013G20KT 10SM FEW015 FEW037 OVC070 22/11 A2991 RMK AO2 SLP127 T02170106

TAF : KBOS 172154Z 01013G20KT 10SM FEW015 FEW037 OVC070 22/11 A2991 RMK AO2 SLP127 T02170106


Runway Data for KBOS
Data provided by openaviationdata.com

Runway ID Mag Var Hdg Length Elevation Surface ILS Freq ILS Id ILS Slope
04L -15 35° 7475 ft 0 ft Bituminous -- -- --
04R -15 35° 7513 ft 0 ft Bituminous 110.3 IBOS 3
9 -15 92° 6761 ft 0 ft Bituminous -- -- --
14 -15 140° 5033 ft 0 ft Asphalt -- -- --
15L -15 151° 2555 ft 0 ft Asphalt -- -- --
15R -15 151° 9857 ft 0 ft Bituminous 110.7 IMDC 3
22L -15 215° 7513 ft 0 ft Bituminous 110.3 ILQN 3
22R -15 215° 7475 ft 0 ft Bituminous -- -- --
27 -15 272° 6761 ft 0 ft Bituminous 111.3 IDGU 3
32 -15 320° 5033 ft 0 ft Asphalt -- -- --
33L -15 331° 9857 ft 0 ft Bituminous 110.7 ILIP 3
33R -15 331° 2555 ft 0 ft Asphalt -- -- --

Boston Logan International Airport, United States
Use only for reference purposes



Not for navigational purposes.